COSMOS 1275 DEB, 13470

Orbit data source: Space-Track

COSMOS 1275 DEB, 13470 is space debris in LEO originally from a launch on Thu, 04 Jun 1981 UTC launched from the Plesetsk Missile And Space Complex (PKMTR). Debris objects in space refer to the collection of defunct objects orbiting the Earth. Examples of debris include non-operational satellites, rocket bodies, and fragments generated from explosions, collisions, or faulty payload assembly.

Loading next visibility...
Identifier
13470, 1981-053FS
Orbit
LEO
Country
Flag of CISCIS
Related business
Manufacturer
Unknown
Mission
Spacecraft
Bus & Motor
Unknown
Mass
Unknown
Launch date (UTC)
1981-06-04 (44 years ago)
Launch vehicle
Unknown
Launch site
Plesetsk Missile And Space Complex (PKMTR)
Object type
Payload
Rocket body
Debris
Shape & HBR
Unknown shape, 0.1 m
Radar Cross Section
Small (<0.1 m²)

Expand to show TLE details & history
Last TLE update: 6 hours ago

TLE from 6 hours ago
0 COSMOS 1275 DEB
1 13470U 81053FS  25286.97546983  .00000641  00000-0  10569-2 0  9990
2 13470  82.8226 355.5761 0238950 173.0832   4.9212 13.35116709109877
Epoch: 2025-10-13T23:24Z
TLE epoch observation values (Epoch: 2025-10-13T23:24:40.593Z)
Latitude
1.63597°
Longitude
161.43143°
Altitude
951.482 km
Speed
7.463 km/s
True Right ascension
11h 41m 29s
True Declination
1° 37' 35"
Sunlit
Object was in daylight at epoch
Visualization orbit readout
Latitude
Unknown
Longitude
Unknown
Altitude
Unknown
Speed
Unknown
Apparent Right ascension
Unknown
Apparent Declination
Unknown
Sunlit
N/A
Visualization observer readout
Local Sidereal Time
23:46:24
Azimuth
Unknown
Elevation
Unknown
Doppler factor
Unknown
Orbital elements
Apogee altitude
1,304.013 km
Perigee altitude
945.451 km
Semi-major axis
7,502.869 km
Eccentricity
0.0239
Inclination
82.8226°
RAAN
355.5761°
Arg. of periapsis
173.0832°
True anomaly
5.16329°
Mean anomaly
4.9212°
Eccentric anomaly
5.04151°
Mean motion
3.33966 °/min
Orbital period
107.8 mins
BSTAR
0.0010569
Loading maneuver chart data...
Computing Atmospheric mass density...
Loading historical data...
Loading historical data...
Loading historical data...
Loading historical data...
Loading historical data...
Loading historical data...
Loading historical data...

Documentation

Showing up to 5 results
|